Temp
-11 -11 -11 -12 -12 -13 -13 -14 -14 -14 -14 -14 -14 -14 -14 -14 -14 -13 -13 -14 -14 -14 -14 -14 -13 -13 -13 -12 -12 -13 -12 -13
-12 -12 -13 -14 -14 -14 -14 -14 -14 -14 -15 -14 -15 -15 -15 -15 -15 -15 -14 -14 -14 -14 -14 -14 -13 -13 -14 -13 -12 -12 -13 -12
-13 -14 -14 -14 -14 -15 -15 -15 -15 -15 -16 -16 -16 -16 -16 -16 -16 -15 -15 -15 -14 -14 -14 -13 -13 -13 -13 -13 -13 -12 -12 -12
-14 -15 -15 -15 -15 -15 -15 -16 -16 -16 -16 -16 -16 -16 -16 -16 -16 -16 -16 -16 -16 -15 -14 -14 -14 -13 -11 -12 -12 -12 -12 -12
-15 -15 -15 -15 -15 -15 -16 -16 -16 -16 -16 -16 -16 -16 -16 -16 -16 -16 -16 -16 -16 -16 -15 -14 -14 -14 -14 -13 -12 -13 -12 -12
-15 -15 -15 -15 -15 -16 -16 -16 -16 -16 -16 -16 -16 -16 -16 -16 -17 -17 -16 -16 -16 -16 -16 -16 -14 -14 -15 -14 -13 -12 -12 -12
-15 -15 -15 -15 -16 -16 -16 -16 -16 -16 -16 -16 -16 -17 -17 -17 -17 -17 -17 -17 -16 -16 -16 -16 -16 -15 -15 -15 -14 -13 -12 -12
-15 -15 -15 -16 -16 -16 -16 -16 -16 -16 -16 -17 -17 -17 -17 -18 -18 -18 -18 -18 -17 -17 -17 -16 -16 -16 -15 -14 -15 -13 -13 -12
-15 -15 -16 -16 -16 -16 -16 -16 -16 -16 -17 -17 -18 -18 -18 -18 -18 -18 -19 -19 -19 -18 -18 -17 -17 -16 -16 -14 -14 -14 -13 -13
-16 -16 -16 -16 -16 -16 -16 -16 -17 -17 -17 -18 -18 -18 -19 -19 -20 -20 -20 -21 -22 -20 -19 -18 -17 -17 -17 -15 -14 -14 -13 -13
-16 -16 -16 -16 -16 -16 -16 -17 -17 -17 -18 -18 -19 -19 -20 -21 -22 -23 -25 -26 -26 -24 -23 -21 -19 -18 -18 -16 -14 -15 -14 -13
-16 -16 -16 -16 -16 -16 -17 -17 -18 -18 -18 -19 -20 -21 -22 -23 -25 -27 -28 -28 -27 -26 -25 -23 -22 -20 -19 -16 -14 -14 -14 -13
-16 -16 -16 -16 -16 -17 -17 -17 -18 -18 -19 -20 -21 -22 -23 -25 -27 -28 -28 -29 -29 -27 -25 -24 -23 -22 -20 -18 -15 -13 -15 -14
-16 -16 -16 -16 -17 -17 -17 -18 -18 -19 -20 -21 -22 -23 -24 -26 -28 -28 -28 -29 -29 -27 -25 -24 -23 -22 -21 -19 -17 -15 -14 -13
-16 -16 -16 -16 -17 -17 -18 -18 -19 -20 -21 -22 -22 -24 -26 -28 -28 -28 -29 -29 -29 -27 -26 -24 -23 -22 -22 -20 -18 -15 -15 -15
-16 -16 -16 -17 -17 -17 -18 -18 -19 -19 -21 -22 -23 -25 -27 -28 -29 -28 -28 -28 -28 -28 -27 -25 -23 -22 -22 -20 -18 -15 -15 -14
-16 -16 -16 -17 -17 -18 -18 -19 -19 -20 -21 -22 -24 -26 -28 -29 -28 -28 -28 -28 -28 -27 -27 -26 -24 -23 -22 -21 -19 -16 -14 -14
-16 -16 -16 -17 -17 -18 -18 -18 -19 -20 -21 -22 -24 -26 -28 -29 -28 -28 -28 -28 -27 -27 -26 -26 -25 -24 -23 -22 -20 -17 -15 -16
-16 -16 -17 -17 -17 -18 -18 -19 -19 -20 -21 -22 -24 -27 -29 -29 -28 -28 -28 -27 -27 -26 -26 -26 -25 -24 -24 -23 -22 -19 -16 -16
-16 -16 -17 -17 -17 -18 -18 -19 -19 -20 -21 -23 -25 -27 -29 -29 -28 -28 -27 -27 -27 -26 -26 -25 -25 -24 -24 -23 -22 -20 -18 -16
Height
5810 5806 5801 5797 5793 5788 5783 5778 5774 5770 5766 5762 5759 5756 5753 5750 5748 5746 5742 5740 5743 5746 5749 5752 5754 5756 5760 5764 5767 5771 5774 5777
5805 5800 5795 5790 5785 5779 5774 5770 5766 5762 5758 5755 5751 5747 5743 5739 5736 5734 5733 5730 5729 5731 5735 5739 5742 5744 5749 5754 5758 5760 5764 5766
5798 5793 5789 5784 5779 5773 5769 5764 5759 5755 5750 5745 5741 5737 5733 5729 5725 5722 5720 5716 5715 5715 5718 5723 5728 5732 5735 5743 5748 5751 5755 5758
5793 5788 5784 5779 5774 5768 5762 5757 5752 5747 5743 5738 5732 5727 5723 5718 5714 5710 5706 5704 5702 5702 5702 5706 5710 5715 5711 5726 5733 5738 5744 5750
5789 5785 5780 5774 5768 5761 5755 5750 5745 5740 5735 5729 5723 5716 5710 5704 5700 5696 5693 5690 5688 5687 5687 5689 5691 5697 5704 5705 5718 5727 5734 5740
5784 5779 5773 5767 5760 5755 5749 5744 5738 5732 5726 5719 5711 5703 5696 5688 5683 5679 5676 5673 5671 5672 5671 5672 5674 5675 5688 5694 5705 5714 5723 5729
5779 5772 5766 5760 5755 5749 5743 5736 5729 5721 5713 5703 5694 5685 5677 5671 5664 5659 5656 5654 5651 5652 5653 5653 5657 5655 5667 5678 5687 5701 5712 5721
5773 5767 5761 5755 5749 5743 5736 5727 5718 5709 5698 5686 5675 5666 5658 5650 5644 5637 5632 5629 5627 5627 5630 5632 5636 5638 5644 5660 5674 5686 5698 5709
5769 5762 5755 5749 5743 5736 5727 5718 5706 5695 5682 5670 5658 5647 5637 5628 5619 5610 5601 5595 5592 5591 5599 5605 5612 5617 5626 5640 5655 5670 5683 5698
5763 5756 5750 5744 5737 5728 5718 5707 5694 5680 5667 5654 5642 5628 5615 5602 5587 5573 5557 5543 5535 5539 5555 5570 5584 5595 5603 5620 5638 5653 5671 5680
5758 5752 5746 5739 5730 5720 5709 5694 5680 5666 5653 5639 5624 5609 5592 5576 5558 5540 5524 5514 5507 5507 5516 5536 5554 5570 5585 5602 5617 5638 5655 5669
5756 5750 5742 5732 5722 5710 5697 5682 5668 5654 5639 5623 5607 5590 5573 5555 5536 5521 5510 5501 5494 5492 5500 5513 5532 5550 5567 5586 5600 5622 5642 5656
5751 5744 5735 5725 5714 5702 5687 5672 5657 5642 5625 5609 5592 5574 5557 5538 5521 5510 5501 5493 5487 5486 5493 5503 5520 5536 5552 5571 5586 5605 5624 5642
5747 5739 5729 5718 5707 5693 5677 5663 5647 5630 5613 5596 5579 5561 5543 5524 5510 5503 5496 5489 5485 5485 5491 5499 5513 5527 5542 5557 5571 5590 5611 5630
5742 5735 5724 5712 5700 5685 5670 5655 5639 5622 5604 5586 5568 5550 5530 5514 5504 5498 5492 5488 5485 5485 5490 5497 5508 5521 5533 5546 5559 5579 5601 5617
5739 5730 5719 5707 5693 5679 5664 5649 5631 5613 5595 5577 5557 5538 5519 5506 5499 5494 5490 5487 5486 5487 5490 5496 5506 5516 5527 5539 5551 5568 5587 5605
5735 5725 5715 5701 5688 5674 5659 5643 5624 5607 5589 5569 5548 5527 5510 5501 5496 5493 5490 5488 5487 5489 5491 5496 5504 5513 5523 5533 5544 5558 5578 5592
5730 5722 5710 5697 5684 5670 5655 5638 5620 5602 5584 5563 5541 5521 5505 5498 5495 5492 5490 5488 5489 5490 5493 5498 5504 5512 5521 5529 5538 5549 5568 5581
5728 5718 5706 5695 5682 5667 5650 5633 5616 5598 5579 5558 5536 5516 5503 5498 5495 5492 5490 5490 5490 5492 5495 5499 5505 5513 5520 5527 5534 5545 5559 5576
5726 5714 5703 5693 5679 5664 5647 5630 5613 5595 5575 5553 5531 5512 5502 5498 5496 5493 5491 5491 5491 5493 5496 5501 5506 5513 5520 5526 5533 5542 5554 5571
Wind_Speed
36 37 37 38 38 38 37 37 36 36 36 36 37 37 37 38 38 42 48 53 54 54 55 55 55 56 49 49 43 40 39 37
37 36 37 37 38 39 39 38 39 39 39 39 38 38 39 39 38 39 42 47 51 56 55 58 59 56 54 47 51 42 40 40
35 35 36 38 39 37 37 37 38 38 38 39 40 41 40 41 42 41 40 43 48 51 56 58 60 57 60 51 47 53 45 42
34 35 37 38 35 36 35 37 38 40 40 42 43 46 46 46 44 43 44 43 45 51 54 59 63 64 53 58 54 55 50 41
34 36 38 37 37 36 37 38 41 40 42 46 52 54 54 53 51 50 49 47 46 48 53 57 65 69 72 57 62 55 52 45
36 37 38 38 37 38 40 43 42 45 49 56 57 57 57 55 53 52 53 52 52 47 51 56 62 72 71 69 59 56 52 50
37 39 39 38 37 39 41 43 47 52 59 61 62 60 58 56 55 55 54 56 58 57 54 54 61 69 73 70 76 62 61 57
37 39 39 37 38 41 44 49 55 61 63 65 65 62 60 58 58 59 59 60 63 64 63 61 58 69 70 74 71 62 60 59
39 39 37 37 40 45 51 56 62 64 66 66 66 64 64 64 65 68 72 73 75 76 72 69 68 66 71 76 72 65 59 59
39 37 35 39 44 50 56 61 65 66 67 68 67 68 69 71 74 81 83 71 65 72 79 78 75 69 69 71 75 59 66 57
37 34 37 42 48 54 59 64 66 69 70 70 70 71 74 76 80 75 57 48 43 47 61 77 74 71 68 73 79 79 68 67
32 35 40 46 52 58 63 65 69 71 71 71 73 74 76 78 73 49 42 39 32 33 45 61 68 67 65 72 77 75 67 70
32 37 43 49 56 60 64 67 71 73 72 74 75 77 76 74 55 37 35 32 24 22 35 49 54 60 61 68 75 84 73 65
34 40 46 53 58 62 65 69 72 73 74 75 77 77 76 66 39 33 29 24 14 12 25 37 44 50 54 62 73 81 77 69
37 42 49 55 60 63 66 69 72 73 74 76 78 78 76 55 30 28 23 15 8 7 18 28 35 42 45 54 65 80 81 75
38 44 51 57 60 63 67 70 72 74 76 78 78 78 69 42 25 24 17 9 4 3 10 20 30 36 39 47 61 75 87 75
40 47 53 57 60 64 67 70 73 75 77 79 80 78 58 30 21 20 11 5 1 4 6 14 25 30 34 42 54 68 86 82
42 49 53 56 60 64 67 69 72 75 77 80 81 73 44 21 19 17 8 3 2 5 6 10 19 27 30 37 48 61 84 92
44 49 53 55 60 64 67 69 73 75 77 80 82 63 36 16 16 13 8 2 3 5 7 11 19 26 26 30 37 50 69 84
46 49 51 54 60 64 67 69 72 75 77 81 81 55 31 16 16 12 8 3 3 6 7 13 18 22 25 27 31 40 54 71
Wind_Direction
312 313 314 316 319 321 320 321 322 320 316 313 309 303 297 291 284 275 272 267 261 256 252 256 259 260 256 252 238 241 237 224
316 319 323 326 328 326 326 325 324 320 317 311 305 300 297 294 288 281 275 271 267 260 252 251 252 258 260 255 249 238 241 224
324 327 328 329 327 326 324 324 322 323 320 319 317 315 309 302 294 284 274 267 263 261 253 247 245 246 250 254 253 241 240 229
329 329 327 325 325 323 323 324 325 323 322 322 320 318 312 307 301 296 290 279 265 259 257 247 242 239 230 245 245 241 241 231
327 325 325 325 324 323 324 324 323 323 320 319 317 314 310 305 299 295 290 286 279 264 254 250 244 238 236 232 238 234 236 229
327 326 325 325 324 324 322 320 321 319 317 315 313 310 306 302 297 291 287 283 278 273 266 251 244 243 237 235 220 232 225 231
327 327 325 324 323 323 323 322 320 319 318 317 315 312 308 304 299 293 286 281 276 271 267 262 247 243 240 231 233 223 227 222
328 324 324 323 325 325 326 325 324 322 320 319 317 314 309 305 300 295 288 280 272 266 262 259 253 245 242 230 226 227 212 214
325 324 325 328 329 330 330 328 326 324 323 321 317 315 312 309 304 299 294 285 272 262 256 253 251 249 239 231 222 223 213 216
326 328 330 332 332 332 330 329 328 327 325 321 320 319 316 314 312 309 306 293 273 255 245 244 243 243 238 229 220 214 212 204
328 331 332 332 333 333 332 332 331 329 325 325 325 323 322 322 321 318 307 299 282 257 236 229 231 231 230 226 219 215 210 201
330 332 333 335 335 335 336 334 334 330 328 329 329 328 328 328 326 318 312 310 290 257 231 223 223 223 223 220 219 212 211 210
334 335 336 336 337 338 338 336 334 332 333 333 332 332 332 332 328 323 320 318 301 256 225 220 219 220 220 214 215 207 204 207
336 337 338 338 340 340 339 338 335 335 336 335 335 334 334 334 327 328 324 325 308 247 224 222 216 215 216 212 214 209 203 198
339 339 339 340 342 342 340 338 337 338 338 337 336 337 336 336 328 331 329 334 315 235 219 216 213 210 211 212 214 205 204 205
340 341 341 344 344 343 341 340 339 341 340 339 338 340 339 338 331 336 336 343 328 208 215 212 207 205 206 209 211 205 200 197
344 343 345 346 345 344 342 342 342 343 342 340 341 342 341 340 339 343 348 358 28 164 204 212 202 197 202 208 208 207 200 196
345 346 348 347 347 346 345 345 344 345 343 342 345 344 344 345 347 347 359 23 94 155 172 200 195 185 197 206 208 207 202 205
346 349 350 349 349 348 348 347 346 346 345 345 347 348 351 352 356 355 5 65 133 145 167 176 188 186 195 204 210 208 206 207
349 352 351 350 351 351 350 349 349 347 348 348 349 352 357 4 7 9 20 75 130 169 158 175 182 192 195 202 205 205 205 206